This is the latest recevied weather packets stored in our database for station/object PA0HHN. If no packets are shown the sender has not sent any weather packets the latest 10 day(s).
| Time | Temp. | Humidity | Pressure | Rain* | Wind** | Luminosity | Snow |
|---|---|---|---|---|---|---|---|
| 1787859001 | 25° C | 71% | 1002.2 hPa | - | - | - | - |
| 1787858101 | 26.11° C | 70% | 1002.1 hPa | - | - | - | - |
| 1787857201 | 26.11° C | 69% | 1001.9 hPa | - | - | - | - |
| 1787856301 | 27.22° C | 66% | 1002 hPa | - | - | - | - |
| 1787855402 | 27.22° C | 65% | 1002.2 hPa | - | - | - | - |
| 1787854500 | 27.22° C | 64% | 1002 hPa | - | - | - | - |
| 1787853600 | 27.78° C | 63% | 1002.1 hPa | - | - | - | - |
| 1787852703 | 27.78° C | 63% | 1001.9 hPa | - | - | - | - |
| 1787851800 | 27.78° C | 62% | 1001.9 hPa | - | - | - | - |
| 1787850900 | 28.89° C | 61% | 1002.2 hPa | - | - | - | - |
| 1787850002 | 28.89° C | 59% | 1002.3 hPa | - | - | - | - |
| 1787849102 | 28.89° C | 58% | 1002.4 hPa | - | - | - | - |
| 1787848202 | 30° C | 57% | 1002.7 hPa | - | - | - | - |
| 1787847300 | 30° C | 57% | 1002.7 hPa | - | - | - | - |
| 1787846400 | 30° C | 57% | 1002.7 hPa | - | - | - | - |
| 1787845503 | 30° C | 55% | 1002.7 hPa | - | - | - | - |
| 1787844602 | 30° C | 55% | 1002.8 hPa | - | - | - | - |
| 1787843702 | 30° C | 55% | 1002.7 hPa | - | - | - | - |
| 1787842802 | 31.11° C | 54% | 1003.2 hPa | - | - | - | - |
| 1787841902 | 31.11° C | 54% | 1003 hPa | - | - | - | - |
| 1787841002 | 28.89° C | 58% | 1002.9 hPa | - | - | - | - |
| 1787840101 | 28.89° C | 59% | 1003 hPa | - | - | - | - |
| 1787839201 | 28.89° C | 59% | 1003 hPa | - | - | - | - |
| 1787838302 | 27.78° C | 61% | 1003 hPa | - | - | - | - |
| 1787837400 | 27.78° C | 60% | 1003.1 hPa | - | - | - | - |
* Rain since midnight (hover to see other rain measurements)
** Current wind speed in m/s (hover to see current wind gust speed)